Agua Nueva, Mexico

8:26 AM CDT en Septiembre 25, 2017 (GMT -0500)
Agua Nueva

Tiempo Historia de 76491 - Septiembre, 2017

Change the Weather History Date:

Jueves, Septiembre 14, 2017

  Actual Average Record
Temperature  
Temperatura media 81 ° F -  
Temperatura máxima 98 ° F 88 ° F - ()
Temperatura mínima 64 ° F 68 ° F - ()
Cooling Degree Days 16    
Growing Degree Days 31 (Base 50)    
Moisture  
Punto de rocío 60 ° F    
Average Humidity 47    
Maximum Humidity 99    
Minimum Humidity 18    
Precipitación  
Precipitación 0.00 pul - - ()
Presión al nivel del mar  
Presión al nivel del mar 29.83 pul    
Viento  
Velocidad del viento 4 mph ()    
Velocidad máxima del viento 12 mph    
Max Gust Speed -    
Visibilidad 8.2 Millas    
Eventos      
T = Trace of Precipitation, MM = Missing Value Source: Averaged Metar Reports

Daily Weather History Graph

Daily Weather History Graph

Search for Another Location

Airport or City:

Trip Planner

Search our weather history database for the weather conditions in past years. The results will help you decide how hot, cold, wet, or windy it might be!

Date:

Astronomía

Sep. 14, 2017 Salida Puesta
Hora real 7:22 AM CDT 7:40 PM CDT
Crepúsculo civil 7:00 AM CDT 8:03 PM CDT
Crepúsculo náutico 6:33 AM CDT 8:29 PM CDT
Crepúsculo astronómico 6:06 AM CDT 8:56 PM CDT
Luna 1:49 AM CDT (9/14) 3:30 PM CDT (9/14)
Horas de luz 13h 03m
Horas de luz
12h 18m
Creciente menguante, 34% of the Moon is Illuminated
Sep 14
Creciente menguante
Sep 20
Nueva
Sep 27
Cuarto creciente
Oct 5
Luna llena
Oct 12
Cuarto menguante

Hourly Weather History & Observations

Hora (CDT) Temp. Índice de calor Punto de rocío Humedad Presión Visibilidad Wind Dir Velocidad del viento Velocidad de ráfagas Precip Eventos Condiciones
12:45 AM 74 ° F - 67 ° F 73% 29.85 pul 4 mi Sin viento Sin viento - -  
3:45 AM 69 ° F - 67 ° F 91% 29.85 pul 4 mi Sin viento Sin viento - -  
6:45 AM 66 ° F - 66 ° F 99% 29.86 pul 4 mi Sin viento Sin viento - -  
7:13 AM 71.6 ° F - 64.4 ° F 78% 29.84 pul 10.0 mi Sur 5.8 mph - N/A   Despejado
7:40 AM 71.6 ° F - 64.4 ° F 78% 29.85 pul 10.0 mi Sur 5.8 mph - N/A   Despejado
8:42 AM 75.2 ° F - 64.4 ° F 69% 29.86 pul 10.0 mi Sur 5.8 mph - N/A   Despejado
9:40 AM 80.6 ° F 81.8 ° F 62.6 ° F 54% 29.86 pul 10.0 mi Sur 6.9 mph - N/A   Despejado
9:50 AM 77 ° F - 67 ° F 64% 29.92 pul 6 mi Sin viento Sin viento - -  
10:47 AM 82.4 ° F 82.9 ° F 60.8 ° F 48% 29.88 pul 10.0 mi Sur 8.1 mph - N/A   Despejado
11:41 AM 87.8 ° F 87.6 ° F 60.8 ° F 40% 29.87 pul 10.0 mi Sur 8.1 mph - N/A   Despejado
12:45 PM 89.6 ° F 89.5 ° F 60.8 ° F 38% 29.83 pul 10.0 mi Sur 11.5 mph - N/A   Despejado
12:50 PM 90 ° F - 64 ° F 33% 29.90 pul 6 mi Norte 2.2 mph - -  
1:42 PM 93.2 ° F 92.6 ° F 59.0 ° F 32% 29.83 pul 10.0 mi SSE 9.2 mph - N/A   Despejado
2:40 PM 95.0 ° F 93.0 ° F 55.4 ° F 26% 29.81 pul 10.0 mi SSE 11.5 mph - N/A   Despejado
3:50 PM 97 ° F - 65 ° F 25% 29.81 pul 6 mi Sin viento Sin viento - -  
3:51 PM 95.0 ° F - 50.0 ° F 22% 29.71 pul 10.0 mi Sur 11.5 mph - N/A   Despejado
4:41 PM 96.8 ° F - 51.8 ° F 22% 29.77 pul 10.0 mi Sur 11.5 mph - N/A   Despejado
5:45 PM 98.6 ° F - 50.0 ° F 19% 29.77 pul 10.0 mi Sur 5.8 mph - N/A   Despejado
6:45 PM 95 ° F - 56 ° F 18% 29.78 pul 6 mi Sin viento Sin viento - -  
6:45 PM 95.0 ° F - 51.8 ° F 23% 29.72 pul 10.0 mi Sur 11.5 mph - N/A   Despejado
7:48 PM 89.6 ° F - 51.8 ° F 27% 29.78 pul 10.0 mi Sin viento Sin viento - N/A   Despejado
9:50 PM 81 ° F - 66 ° F 51% 29.83 pul 4 mi Sin viento Sin viento - -